Change the Weather History Date:

Friday, May 24, 2013

  Actual Average Record
Temperature  
Mean Temperature 53 °F 50 °F  
Max Temperature 66 °F 59 °F 77 °F (1969)
Min Temperature 39 °F 42 °F 28 °F (1939)
Degree Days  
Heating Degree Days 12    
Month to date heating degree days 550  
Since 1 July heating degree days 10298  
Cooling Degree Days 0    
Month to date cooling degree days 0  
Year to date cooling degree days 0  
Growing Degree Days 2 (Base 50)    
Moisture  
Dew Point 38 °F    
Average Humidity 64    
Maximum Humidity 82    
Minimum Humidity 46    
Precipitation  
Precipitation 0.00 in 0.03 in 0.68 in (1995)
Month to date precipitation 1.53 0.53  
Year to date precipitation 6.38 3.05  
Snow  
Snow 0.00 in 0.00 in 0.00 in ()
Month to date snowfall 1.3 0.3  
Since 1 July snowfall 94.0 74.5  
Snow Depth 0.00 in    
Sea Level Pressure  
Sea Level Pressure 30.02 in    
Wind  
Wind Speed 4 mph (SW)    
Max Wind Speed 8 mph    
Max Gust Speed -    
Visibility 10 miles    
Events      
T = Trace of Precipitation, MM = Missing Value Source: NWS Daily Summary

Daily Weather History Graph

Daily Weather History Graph

Search for Another Location

Airport or City:

Trip Planner

Search our weather history database for the weather conditions in past years. The results will help you decide how hot, cold, wet, or windy it might be!

Date:

Astronomy

May. 24, 2013 Rise Set
Actual Time 4:51 AM AKDT 11:04 PM AKDT
Civil Twilight 3:27 AM AKDT 12:30 AM AKDT
Nautical Twilight Sun does not rise Sun does not rise
Astronomical Twilight Sun does not rise Sun does not rise
Moon 10:47 PM AKDT (5/24) 4:51 AM AKDT (5/24)
Length of Visible Light 21h 03m
Length of Day
18h 13m
Full, 100% of the Moon is Illuminated
May 24
Full
May 24
Full
May 31
Last Quarter
Jun 8
New
Jun 16
First Quarter

Hourly Weather History & Observations

Time (AKDT) Temp. Windchill Dew Point Humidity Pressure Visibility Wind Dir Wind Speed Gust Speed Precip Events Conditions
12:53 AM 43.0 °F - 36.0 °F 76% 30.09 in 10.0 mi Calm Calm - N/A   Mostly Cloudy
1:53 AM 42.1 °F 39.2 °F 36.0 °F 79% 30.09 in 10.0 mi South 4.6 mph - N/A   Mostly Cloudy
2:53 AM 45.0 °F 41.2 °F 37.0 °F 74% 30.08 in 10.0 mi South 6.9 mph - N/A   Scattered Clouds
3:53 AM 45.0 °F 40.6 °F 37.0 °F 74% 30.07 in 10.0 mi South 8.1 mph - N/A   Mostly Cloudy
4:53 AM 45.0 °F - 36.0 °F 71% 30.07 in 10.0 mi Calm Calm - N/A   Mostly Cloudy
5:53 AM 42.1 °F 37.7 °F 36.0 °F 79% 30.07 in 10.0 mi South 6.9 mph - N/A   Mostly Cloudy
6:53 AM 44.1 °F 40.8 °F 36.0 °F 73% 30.06 in 10.0 mi SSE 5.8 mph - N/A   Scattered Clouds
7:53 AM 43.0 °F 38.2 °F 37.0 °F 80% 30.06 in 10.0 mi South 8.1 mph - N/A   Scattered Clouds
8:53 AM 46.9 °F - 37.0 °F 68% 30.06 in 10.0 mi Calm Calm - N/A   Scattered Clouds
9:53 AM 51.1 °F - 37.9 °F 61% 30.05 in 10.0 mi Calm Calm - N/A   Mostly Cloudy
10:53 AM 54.0 °F - 39.0 °F 57% 30.04 in 10.0 mi WNW 4.6 mph - N/A   Mostly Cloudy
11:53 AM 55.0 °F - 37.9 °F 53% 30.03 in 10.0 mi Variable 3.5 mph - N/A   Mostly Cloudy
12:53 PM 60.1 °F - 39.0 °F 46% 30.02 in 10.0 mi NNW 5.8 mph - N/A   Mostly Cloudy
1:53 PM 60.1 °F - 39.9 °F 47% 30.00 in 10.0 mi West 5.8 mph - N/A   Scattered Clouds
2:53 PM 63.0 °F - 42.1 °F 46% 30.00 in 10.0 mi West 4.6 mph - N/A   Scattered Clouds
3:53 PM 64.9 °F - 39.9 °F 40% 29.99 in 10.0 mi West 4.6 mph - N/A   Scattered Clouds
4:53 PM 63.0 °F - 42.1 °F 46% 29.99 in 10.0 mi WNW 8.1 mph - N/A   Scattered Clouds
5:53 PM 62.1 °F - 37.0 °F 39% 29.98 in 10.0 mi WNW 6.9 mph - N/A   Scattered Clouds
6:53 PM 64.9 °F - 36.0 °F 34% 29.97 in 10.0 mi SW 4.6 mph - N/A   Scattered Clouds
7:53 PM 60.1 °F - 39.0 °F 46% 29.97 in 10.0 mi Variable 5.8 mph - N/A   Scattered Clouds
8:53 PM 60.1 °F - 37.9 °F 44% 29.96 in 10.0 mi Calm Calm - N/A   Scattered Clouds
9:53 PM 57.0 °F - 36.0 °F 45% 29.97 in 10.0 mi Variable 3.5 mph - N/A   Scattered Clouds
10:53 PM 57.0 °F - 36.0 °F 45% 29.97 in 10.0 mi Calm Calm - N/A   Scattered Clouds
11:53 PM 48.0 °F - 37.0 °F 66% 29.97 in 10.0 mi Calm Calm - N/A   Clear